Temp
-8 -8 -8 -8 -8 -8 -8 -8 -9 -9 -9 -8 -9 -9 -9 -9 -9 -9 -9 -9 -9 -9 -9 -9 -10 -10 -10 -10 -10 -10 -10 -10 -10 -10 -10 -10 -10 -10 -10 -10 -10 -10 -10 -10 -10
-9 -9 -9 -9 -8 -9 -9 -9 -9 -9 -9 -9 -9 -9 -9 -9 -9 -9 -9 -9 -9 -9 -9 -10 -10 -10 -10 -10 -10 -10 -10 -10 -10 -10 -10 -10 -10 -10 -10 -10 -10 -10 -10 -11 -11
-9 -9 -9 -9 -9 -9 -9 -9 -9 -9 -9 -9 -9 -9 -9 -9 -9 -9 -9 -9 -9 -9 -10 -10 -10 -10 -10 -10 -10 -10 -10 -10 -10 -10 -10 -10 -10 -10 -11 -11 -11 -11 -11 -11 -11
-9 -9 -9 -9 -9 -9 -9 -9 -9 -9 -9 -9 -8 -8 -9 -9 -9 -9 -9 -9 -10 -10 -10 -10 -10 -10 -10 -10 -10 -10 -10 -10 -10 -10 -10 -10 -11 -11 -11 -11 -11 -11 -11 -11 -12
-9 -9 -9 -9 -9 -9 -9 -9 -9 -9 -8 -8 -8 -8 -9 -9 -9 -9 -9 -9 -10 -10 -10 -10 -10 -10 -10 -10 -10 -10 -10 -10 -10 -10 -10 -10 -11 -11 -11 -11 -12 -12 -12 -12 -12
-9 -9 -9 -9 -9 -9 -9 -9 -9 -9 -8 -8 -8 -9 -9 -9 -9 -9 -9 -9 -10 -10 -10 -10 -10 -10 -10 -10 -10 -10 -10 -10 -11 -11 -11 -11 -11 -11 -11 -12 -12 -12 -12 -12 -13
-9 -9 -9 -9 -10 -9 -9 -9 -8 -8 -8 -9 -9 -9 -9 -9 -9 -9 -9 -9 -10 -10 -10 -10 -10 -10 -10 -10 -10 -10 -10 -11 -11 -11 -11 -11 -11 -12 -12 -12 -12 -12 -12 -12 -13
-9 -9 -9 -9 -9 -9 -9 -9 -8 -8 -8 -9 -9 -9 -9 -9 -9 -9 -9 -10 -10 -10 -10 -10 -10 -10 -10 -11 -11 -11 -11 -11 -11 -11 -11 -11 -11 -12 -12 -12 -12 -12 -12 -12 -12
-10 -10 -10 -10 -9 -9 -9 -9 -9 -9 -9 -9 -9 -9 -9 -9 -9 -10 -10 -10 -10 -10 -11 -11 -11 -11 -11 -11 -11 -11 -11 -11 -11 -11 -11 -11 -11 -12 -12 -12 -12 -13 -13 -13 -13
-10 -10 -10 -10 -10 -10 -10 -10 -10 -10 -9 -9 -9 -10 -10 -10 -10 -10 -10 -10 -11 -11 -11 -11 -11 -11 -11 -11 -11 -11 -12 -12 -12 -11 -11 -11 -12 -12 -12 -13 -13 -13 -13 -13 -14
-10 -10 -10 -10 -10 -10 -10 -10 -9 -10 -10 -10 -10 -10 -10 -10 -10 -10 -10 -11 -11 -11 -11 -11 -11 -11 -11 -11 -12 -12 -12 -12 -12 -12 -12 -12 -12 -12 -13 -13 -13 -13 -13 -14 -14
-10 -10 -10 -10 -10 -10 -10 -10 -10 -10 -10 -10 -10 -10 -10 -10 -10 -11 -11 -11 -11 -12 -12 -12 -11 -12 -12 -12 -12 -12 -12 -12 -12 -12 -12 -12 -12 -13 -13 -14 -14 -14 -14 -15 -15
-10 -10 -10 -10 -10 -10 -10 -10 -11 -11 -10 -11 -11 -11 -11 -11 -11 -11 -12 -12 -12 -12 -12 -12 -12 -12 -12 -12 -13 -13 -13 -13 -12 -12 -12 -12 -11 -13 -14 -14 -14 -14 -15 -15 -15
-10 -10 -11 -10 -11 -11 -11 -11 -10 -10 -11 -11 -11 -11 -11 -11 -12 -12 -12 -12 -12 -12 -12 -12 -12 -12 -13 -13 -13 -13 -13 -13 -13 -13 -12 -13 -12 -11 -13 -14 -14 -15 -15 -15 -15
-11 -11 -11 -11 -11 -11 -11 -12 -12 -11 -11 -11 -11 -12 -12 -12 -12 -13 -13 -12 -12 -12 -12 -12 -13 -13 -13 -13 -13 -13 -13 -13 -13 -13 -13 -13 -14 -12 -14 -14 -15 -15 -16 -16 -16
-11 -11 -11 -12 -12 -12 -11 -12 -12 -12 -12 -12 -12 -12 -13 -13 -13 -13 -13 -13 -13 -13 -13 -13 -13 -13 -13 -14 -14 -13 -13 -13 -13 -13 -13 -13 -14 -12 -14 -15 -16 -16 -16 -16 -17
-12 -12 -12 -12 -12 -12 -12 -12 -12 -13 -13 -12 -12 -13 -12 -13 -13 -12 -13 -13 -13 -13 -13 -13 -13 -13 -14 -14 -14 -14 -14 -14 -13 -14 -14 -14 -14 -14 -15 -16 -16 -16 -17 -17 -18
-13 -13 -13 -12 -12 -13 -13 -13 -12 -12 -13 -13 -12 -13 -13 -13 -13 -13 -13 -13 -14 -14 -13 -13 -13 -13 -13 -14 -14 -14 -15 -15 -15 -15 -15 -15 -14 -15 -16 -16 -17 -17 -17 -18 -18
-13 -13 -14 -14 -14 -13 -13 -13 -13 -13 -13 -13 -13 -13 -13 -13 -13 -13 -13 -13 -13 -14 -14 -14 -13 -13 -14 -14 -15 -14 -15 -16 -16 -16 -15 -15 -15 -15 -17 -17 -17 -17 -18 -18 -19
-14 -13 -14 -14 -14 -14 -14 -13 -14 -14 -14 -14 -14 -13 -13 -13 -14 -14 -13 -13 -14 -14 -14 -14 -14 -14 -14 -14 -15 -15 -15 -16 -17 -17 -16 -15 -15 -17 -17 -18 -18 -18 -19 -19 -20
-14 -14 -14 -14 -14 -14 -14 -14 -14 -15 -15 -14 -14 -14 -14 -14 -14 -14 -14 -14 -14 -15 -15 -15 -14 -14 -14 -15 -15 -15 -15 -17 -17 -17 -18 -17 -15 -17 -18 -19 -19 -19 -19 -20 -20
-15 -14 -14 -15 -15 -15 -15 -15 -15 -15 -15 -15 -15 -15 -15 -15 -14 -14 -14 -15 -15 -15 -15 -15 -15 -15 -15 -15 -15 -15 -16 -17 -17 -17 -17 -18 -15 -18 -19 -19 -19 -20 -20 -20 -21
-15 -15 -15 -15 -15 -15 -15 -15 -16 -15 -15 -15 -15 -16 -15 -15 -15 -15 -15 -15 -15 -16 -16 -16 -15 -16 -15 -15 -16 -15 -16 -16 -17 -17 -17 -18 -18 -19 -19 -19 -20 -20 -20 -20 -21
-15 -15 -15 -16 -16 -16 -16 -15 -16 -16 -16 -16 -16 -16 -16 -16 -16 -15 -15 -15 -16 -16 -16 -16 -16 -16 -16 -16 -16 -16 -16 -17 -17 -17 -18 -17 -19 -20 -20 -20 -20 -20 -20 -21 -21
-15 -14 -15 -15 -15 -16 -16 -15 -15 -16 -16 -16 -16 -17 -16 -16 -16 -16 -16 -16 -16 -16 -16 -17 -16 -16 -16 -17 -16 -17 -17 -18 -17 -18 -18 -18 -18 -20 -20 -21 -21 -21 -21 -21 -22
-17 -16 -15 -15 -15 -15 -15 -16 -16 -17 -18 -17 -17 -17 -17 -17 -17 -17 -17 -17 -17 -16 -17 -17 -17 -16 -16 -17 -17 -16 -17 -18 -18 -19 -18 -19 -19 -20 -21 -21 -21 -21 -21 -22 -22
-17 -18 -17 -15 -15 -16 -15 -15 -16 -17 -16 -18 -18 -18 -17 -18 -17 -17 -17 -17 -17 -17 -17 -17 -17 -17 -16 -17 -17 -16 -17 -17 -18 -19 -19 -20 -20 -20 -21 -21 -21 -21 -22 -22 -23
Height
5851 5850 5849 5848 5847 5845 5844 5842 5841 5839 5837 5835 5834 5832 5831 5829 5827 5826 5825 5824 5822 5820 5819 5818 5817 5815 5813 5811 5810 5808 5808 5806 5804 5802 5800 5798 5797 5796 5795 5795 5793 5791 5788 5787 5786
5850 5849 5848 5847 5845 5844 5843 5841 5838 5836 5835 5833 5832 5830 5829 5826 5825 5823 5823 5821 5820 5818 5817 5815 5813 5812 5810 5809 5807 5805 5804 5801 5799 5798 5796 5794 5793 5792 5791 5790 5787 5785 5783 5782 5780
5851 5849 5847 5845 5843 5841 5840 5839 5837 5835 5834 5832 5830 5828 5827 5825 5823 5821 5820 5818 5817 5815 5814 5812 5810 5809 5807 5806 5804 5801 5799 5796 5794 5792 5791 5790 5789 5788 5786 5784 5782 5779 5777 5774 5772
5850 5848 5846 5844 5841 5838 5836 5835 5834 5833 5831 5829 5827 5825 5823 5821 5821 5817 5816 5815 5814 5812 5811 5809 5807 5805 5803 5801 5799 5796 5794 5791 5789 5787 5785 5783 5782 5781 5779 5777 5775 5772 5770 5767 5765
5849 5847 5845 5842 5840 5838 5835 5833 5832 5830 5828 5826 5824 5822 5821 5819 5816 5814 5813 5811 5810 5809 5807 5806 5803 5801 5799 5796 5794 5791 5789 5787 5783 5781 5779 5777 5775 5774 5772 5768 5766 5763 5761 5758 5756
5846 5844 5842 5840 5838 5836 5834 5831 5830 5828 5825 5823 5821 5819 5817 5816 5813 5811 5809 5808 5807 5805 5803 5801 5799 5796 5794 5791 5789 5786 5783 5781 5779 5776 5774 5771 5769 5768 5765 5762 5758 5755 5752 5748 5745
5843 5841 5839 5836 5834 5833 5831 5829 5827 5825 5822 5820 5817 5815 5813 5812 5810 5808 5806 5805 5803 5800 5798 5796 5794 5792 5789 5787 5784 5780 5778 5775 5772 5770 5767 5764 5764 5762 5758 5754 5750 5746 5742 5739 5735
5840 5838 5835 5832 5829 5827 5827 5826 5824 5821 5818 5816 5813 5811 5810 5807 5806 5804 5803 5801 5799 5796 5794 5792 5789 5786 5783 5780 5778 5774 5772 5769 5767 5764 5761 5757 5756 5752 5749 5746 5742 5737 5733 5729 5725
5836 5834 5832 5829 5826 5824 5821 5820 5818 5816 5814 5811 5809 5807 5806 5804 5802 5800 5797 5796 5793 5791 5789 5786 5783 5780 5778 5774 5771 5768 5764 5762 5759 5756 5752 5749 5747 5743 5739 5735 5730 5726 5721 5717 5712
5832 5830 5829 5826 5823 5820 5818 5814 5812 5811 5809 5807 5805 5804 5801 5799 5796 5794 5792 5790 5788 5785 5783 5780 5777 5774 5771 5767 5763 5760 5756 5753 5749 5747 5742 5738 5735 5732 5729 5725 5721 5716 5711 5705 5700
5830 5826 5823 5821 5820 5817 5814 5812 5810 5807 5804 5802 5800 5798 5794 5793 5790 5788 5786 5784 5781 5779 5776 5772 5770 5767 5764 5760 5755 5751 5747 5743 5739 5736 5731 5727 5724 5720 5718 5715 5710 5704 5699 5692 5686
5826 5823 5821 5818 5815 5812 5810 5807 5804 5802 5801 5797 5795 5792 5790 5788 5785 5782 5780 5778 5774 5771 5768 5766 5763 5760 5756 5752 5748 5743 5738 5734 5729 5725 5720 5716 5713 5709 5707 5702 5696 5691 5684 5677 5670
5822 5819 5816 5813 5811 5809 5806 5803 5799 5795 5794 5793 5790 5788 5785 5782 5780 5777 5774 5770 5767 5764 5761 5758 5755 5751 5747 5743 5739 5734 5730 5725 5720 5715 5710 5705 5702 5698 5695 5690 5684 5676 5670 5663 5656
5817 5813 5811 5809 5806 5802 5799 5797 5794 5792 5789 5788 5784 5781 5779 5775 5774 5771 5767 5765 5761 5758 5754 5753 5749 5745 5741 5737 5732 5727 5721 5716 5710 5705 5700 5695 5688 5687 5682 5677 5670 5662 5654 5646 5640
5812 5809 5805 5801 5799 5796 5793 5790 5788 5785 5782 5782 5778 5775 5771 5769 5766 5765 5760 5756 5753 5751 5749 5746 5741 5737 5734 5729 5723 5717 5711 5705 5700 5694 5689 5686 5677 5674 5671 5664 5655 5647 5638 5630 5622
5804 5804 5801 5797 5794 5790 5787 5785 5782 5782 5776 5774 5769 5767 5766 5763 5760 5755 5752 5750 5747 5743 5741 5737 5733 5729 5725 5720 5714 5707 5700 5694 5689 5683 5679 5673 5665 5661 5655 5648 5641 5631 5622 5614 5606
5796 5796 5794 5791 5788 5785 5782 5778 5777 5774 5772 5767 5763 5761 5758 5756 5752 5748 5745 5742 5739 5734 5733 5729 5725 5721 5716 5710 5704 5697 5689 5681 5677 5671 5666 5660 5652 5650 5640 5634 5625 5616 5607 5598 5589
5788 5787 5785 5781 5779 5777 5774 5772 5768 5766 5762 5759 5755 5753 5750 5747 5744 5740 5737 5734 5731 5726 5721 5717 5715 5709 5705 5700 5693 5686 5678 5670 5661 5660 5655 5648 5639 5635 5627 5620 5609 5600 5592 5582 5574
5777 5775 5773 5770 5768 5765 5764 5761 5758 5755 5753 5750 5747 5743 5741 5738 5734 5730 5728 5724 5721 5717 5712 5706 5705 5700 5695 5689 5684 5676 5669 5661 5651 5647 5641 5636 5629 5620 5613 5604 5594 5585 5576 5568 5558
5764 5763 5761 5756 5755 5754 5752 5749 5746 5743 5740 5737 5734 5732 5729 5726 5723 5719 5717 5715 5709 5705 5700 5697 5692 5690 5684 5679 5674 5664 5657 5649 5640 5630 5625 5623 5615 5605 5600 5588 5578 5570 5563 5553 5542
5748 5750 5747 5745 5743 5740 5738 5736 5733 5728 5726 5725 5723 5719 5717 5714 5711 5708 5705 5703 5697 5693 5688 5684 5680 5678 5672 5667 5659 5653 5645 5637 5629 5621 5609 5603 5603 5595 5584 5574 5564 5556 5547 5536 5525
5734 5733 5734 5733 5731 5727 5726 5723 5721 5718 5715 5712 5710 5707 5704 5701 5698 5695 5692 5687 5685 5680 5675 5671 5665 5662 5659 5653 5646 5640 5632 5625 5616 5609 5598 5590 5586 5579 5570 5559 5550 5542 5532 5520 5508
5720 5719 5722 5720 5717 5716 5713 5710 5707 5705 5702 5698 5695 5694 5692 5689 5683 5681 5678 5676 5671 5667 5661 5658 5652 5648 5644 5641 5633 5627 5621 5612 5604 5594 5591 5575 5573 5562 5555 5545 5537 5527 5516 5504 5491
5707 5703 5703 5705 5703 5701 5700 5698 5695 5694 5691 5686 5684 5682 5679 5676 5672 5668 5664 5661 5658 5652 5648 5644 5639 5637 5631 5625 5621 5614 5606 5599 5591 5583 5577 5570 5559 5551 5539 5531 5522 5512 5500 5488 5474
5695 5691 5690 5688 5686 5685 5686 5683 5681 5681 5677 5674 5672 5673 5666 5663 5660 5656 5652 5649 5644 5639 5635 5630 5626 5623 5619 5612 5607 5601 5594 5587 5579 5572 5561 5559 5546 5537 5527 5517 5507 5496 5484 5472 5458
5679 5677 5675 5673 5671 5669 5666 5665 5664 5664 5661 5658 5655 5655 5652 5651 5647 5641 5637 5634 5631 5628 5622 5618 5613 5610 5607 5600 5593 5589 5584 5575 5567 5557 5548 5541 5537 5523 5515 5504 5493 5481 5470 5456 5443
5661 5659 5656 5657 5654 5651 5650 5648 5647 5644 5646 5643 5640 5638 5636 5637 5631 5627 5623 5620 5617 5613 5610 5605 5600 5595 5591 5587 5580 5577 5572 5563 5554 5544 5536 5528 5522 5513 5502 5491 5480 5468 5455 5442 5429
Wind_Speed
8 8 7 9 11 11 11 11 12 15 16 12 11 13 14 14 14 15 15 15 14 14 15 14 15 15 16 17 16 17 17 18 17 17 18 20 21 22 23 24 25 27 28 30 32
8 9 10 11 12 13 12 12 14 15 13 12 12 14 16 15 15 14 14 14 14 14 14 15 17 16 17 17 19 20 20 20 19 18 19 20 20 22 23 25 28 29 31 32 34
9 11 13 15 15 15 15 14 14 13 12 14 17 18 18 17 17 15 15 15 14 14 14 15 15 16 16 19 21 22 21 20 21 21 21 20 21 22 24 26 28 30 32 34 35
10 12 15 15 14 13 11 10 9 10 12 14 16 18 19 17 16 17 17 16 15 15 16 16 16 17 19 21 22 22 21 21 23 24 24 23 23 24 26 27 30 32 34 37 39
11 13 16 16 13 11 9 9 11 13 14 15 16 17 16 16 16 17 17 16 16 17 17 17 19 20 23 25 24 23 22 23 25 26 26 28 30 30 31 32 33 35 37 39 41
11 14 16 17 15 13 12 12 14 15 16 17 17 15 15 17 18 16 16 16 18 20 18 18 21 24 26 26 25 24 25 26 28 29 30 33 34 34 35 36 38 40 42 43 44
11 14 16 17 18 17 15 15 16 18 18 18 17 17 16 17 18 18 17 19 20 21 20 22 25 26 28 28 28 28 28 30 31 32 34 37 37 36 38 39 41 43 44 45 47
14 16 17 17 17 17 18 19 19 20 21 20 19 19 18 18 19 18 20 22 23 24 23 26 28 30 31 32 31 31 32 33 34 36 38 41 40 39 40 41 42 44 47 50 52
18 19 20 20 19 19 18 19 22 23 24 21 21 20 19 20 20 21 22 22 25 26 27 29 29 31 32 33 34 34 36 37 38 39 43 43 43 42 41 41 43 46 49 51 53
22 22 23 24 23 22 22 22 22 24 25 24 22 20 21 21 22 22 23 24 26 26 29 31 32 33 33 35 35 35 37 38 41 42 45 46 46 46 44 44 47 50 51 53 55
26 24 21 22 24 24 24 24 25 23 24 24 23 22 21 22 23 24 25 24 25 30 31 32 32 34 36 36 36 37 39 41 44 46 47 48 50 50 48 49 49 51 53 56 58
27 25 26 26 27 27 28 28 28 26 22 24 22 23 24 24 24 23 22 26 30 30 32 33 33 36 37 37 38 40 42 43 46 48 50 51 52 50 49 50 51 52 56 58 59
27 28 27 27 29 30 29 30 29 27 24 20 23 24 25 25 23 23 28 31 32 33 33 33 33 35 36 37 40 42 44 46 47 49 51 51 53 51 50 50 53 54 56 59 60
29 29 30 30 28 28 29 29 30 31 27 24 26 27 24 25 24 28 30 34 34 33 34 34 36 36 37 39 43 45 47 46 47 49 51 51 56 55 56 53 55 56 58 60 64
34 33 32 32 32 31 30 31 31 32 33 29 28 28 29 30 31 28 34 34 35 34 33 35 38 39 40 43 44 46 45 47 48 49 52 51 55 58 54 55 56 58 62 64 67
36 38 38 36 36 35 36 36 34 32 36 32 31 31 32 31 35 36 36 36 36 34 33 37 38 40 43 44 46 47 47 46 49 51 53 54 56 58 57 57 58 61 65 66 69
39 42 43 43 40 40 39 38 39 34 36 37 36 36 37 35 36 38 39 38 37 39 38 40 41 42 45 47 48 48 48 51 52 54 56 56 59 58 59 57 60 65 67 71 73
44 41 42 42 42 39 37 39 38 38 37 38 39 39 40 39 40 41 42 42 41 41 43 45 47 48 50 52 51 52 51 51 54 55 55 56 61 59 59 59 63 67 71 72 73
52 49 45 47 46 43 42 40 41 41 42 41 43 42 42 42 43 44 45 44 43 43 45 49 51 53 52 54 54 52 54 55 58 59 60 60 60 62 62 62 67 70 71 72 76
57 56 51 54 54 52 50 47 48 48 50 48 47 47 49 46 47 46 48 50 49 48 48 51 53 54 54 56 53 53 54 56 58 61 62 61 62 66 61 65 69 71 72 73 76
59 57 55 55 56 54 53 53 52 49 48 50 51 51 51 52 51 52 53 53 53 54 55 56 55 55 57 56 55 54 57 58 60 61 65 65 63 62 63 66 69 71 71 74 77
62 58 56 51 50 48 46 47 50 50 51 50 51 52 54 54 53 53 53 54 54 56 57 58 58 59 58 57 57 58 59 59 59 62 65 65 67 62 65 67 70 70 72 76 78
59 62 57 54 54 53 51 50 47 48 49 49 48 44 46 47 48 49 51 53 57 56 57 59 61 59 59 59 58 57 58 59 59 62 61 66 65 63 63 68 68 71 73 76 78
55 58 56 53 54 54 54 53 51 49 50 47 47 44 44 47 49 51 51 53 55 56 58 59 61 57 59 58 57 58 57 57 59 60 61 65 63 60 66 66 68 71 74 76 79
58 58 56 57 59 61 63 64 66 66 64 66 62 56 54 48 48 51 50 52 55 56 56 58 60 59 58 56 57 57 57 57 59 60 65 60 63 60 64 66 68 71 75 77 79
62 62 63 61 60 63 62 61 63 61 59 63 64 64 64 46 50 49 49 49 51 53 51 53 54 55 56 56 56 57 55 57 62 58 61 59 58 61 63 65 69 72 75 77 80
68 66 68 71 69 68 68 68 63 62 61 59 58 58 56 52 54 49 51 53 54 54 56 53 54 57 59 56 57 57 60 60 60 60 60 60 58 60 62 66 69 72 75 78 79
Wind_Direction
336 340 331 324 325 321 318 313 316 320 326 325 332 334 331 327 324 326 327 324 324 320 317 314 315 316 316 317 315 314 310 309 304 296 292 293 295 295 295 293 291 291 291 290 291
352 348 344 338 328 317 311 309 314 323 324 328 331 328 327 326 325 321 319 316 314 311 313 312 314 313 314 316 316 313 309 308 303 299 296 293 292 290 290 289 290 290 289 289 289
340 340 337 329 319 311 307 309 316 326 333 334 331 328 327 325 322 321 319 316 307 303 301 308 310 310 310 311 311 309 309 309 309 308 306 303 301 301 300 299 295 292 292 290 287
327 336 338 334 331 328 319 316 323 324 327 328 326 322 322 321 320 320 318 314 311 310 311 311 311 309 309 307 305 307 304 306 308 310 309 309 308 308 306 302 298 293 291 289 288
320 326 330 334 328 326 331 330 328 324 323 318 316 315 316 316 314 317 316 312 309 310 310 308 307 307 308 307 305 304 301 302 304 306 307 307 308 308 308 303 300 297 295 292 290
307 313 316 319 321 315 315 316 317 315 314 311 307 305 308 311 309 311 311 311 310 308 307 304 303 304 304 304 305 304 301 301 302 303 304 303 304 305 303 302 301 299 297 296 294
302 305 308 311 311 306 299 301 303 306 305 306 302 299 305 308 306 305 305 305 306 304 302 302 304 303 304 305 305 304 300 299 299 300 302 302 304 305 302 302 302 301 298 296 295
294 293 293 296 300 299 293 290 294 295 296 299 298 297 302 306 306 302 302 303 305 304 300 303 304 305 305 305 307 304 302 300 303 304 304 303 305 303 302 301 300 298 296 294 292
291 292 292 291 291 290 286 282 286 286 290 292 292 296 300 302 303 301 301 301 303 301 301 303 303 304 304 305 305 304 304 304 304 304 304 305 304 300 299 298 297 294 293 291 290
295 297 296 291 289 288 286 283 282 288 291 292 291 294 297 299 301 299 299 297 298 298 301 302 302 303 302 302 304 304 304 303 302 302 302 302 302 301 300 299 298 296 295 293 292
295 294 292 290 290 290 287 286 287 288 291 292 290 290 291 294 296 295 294 294 295 299 299 299 300 300 302 303 304 305 304 304 304 306 304 303 303 302 301 302 301 300 298 294 293
292 290 293 292 290 289 291 292 292 293 289 288 284 286 292 292 292 290 289 293 295 295 295 295 298 299 301 303 305 306 306 306 305 306 305 304 303 302 303 304 303 302 298 295 293
291 290 287 289 292 295 295 295 293 292 291 283 285 289 289 290 290 289 294 295 295 295 294 292 294 297 300 300 301 302 304 304 306 307 306 305 306 304 304 303 303 301 299 297 296
286 288 289 289 288 290 293 294 295 296 295 291 288 286 285 284 285 289 292 295 295 296 295 296 296 297 299 302 304 306 306 307 307 307 307 306 307 308 306 307 304 303 301 300 302
286 287 288 287 288 288 289 290 293 293 293 296 294 292 290 291 291 290 292 292 294 294 294 297 299 301 303 305 304 306 308 308 308 306 305 307 304 306 309 307 306 306 304 305 304
286 287 288 289 291 291 291 293 296 296 296 294 292 292 291 292 294 295 297 297 296 292 294 298 302 304 306 306 308 308 306 307 307 304 303 305 306 309 313 310 309 305 305 305 307
288 291 291 291 290 292 293 293 293 293 293 291 291 290 289 292 292 294 296 296 296 292 291 294 300 306 308 308 307 309 307 306 306 305 304 305 307 314 310 311 307 306 307 309 309
291 290 290 290 291 292 293 295 292 294 294 294 292 292 292 292 291 292 294 295 294 292 290 293 297 301 305 310 306 305 305 305 304 304 302 305 307 310 310 311 308 308 309 309 312
288 286 282 282 281 283 285 286 288 289 289 290 291 291 289 289 289 289 291 291 291 290 291 292 294 297 301 307 308 305 306 306 306 305 304 306 308 309 314 309 309 309 310 313 312
283 285 284 282 283 280 280 281 284 284 285 286 288 289 288 288 289 291 290 291 292 293 293 294 294 297 298 302 304 303 303 304 304 302 304 306 308 308 312 311 309 309 312 313 313
285 283 282 287 281 278 278 279 279 278 279 283 285 287 287 286 289 290 292 293 291 292 291 291 292 296 296 299 303 303 302 303 304 305 306 307 308 312 310 308 309 311 314 313 313
282 281 282 285 274 275 277 278 277 282 286 288 287 283 285 286 288 288 290 291 294 292 291 290 291 295 296 300 302 302 302 303 305 305 305 308 308 311 308 310 310 313 314 313 315
284 284 284 284 280 281 278 278 280 281 284 284 283 284 284 283 286 288 289 290 290 290 290 291 292 294 298 300 300 301 301 302 302 302 308 304 313 308 309 309 312 312 314 315 317
287 285 287 275 281 278 276 274 276 281 277 279 280 281 284 289 289 287 289 289 291 292 291 290 290 292 296 296 297 297 298 301 301 305 305 310 307 311 308 311 313 314 315 318 318
284 284 285 284 284 279 275 274 276 286 283 280 279 283 285 288 289 287 287 288 290 290 291 289 290 293 293 295 296 298 299 302 304 307 306 309 308 307 310 312 314 316 318 319 319
282 283 283 281 281 281 280 279 280 281 280 279 283 285 287 283 286 286 286 288 289 287 285 288 290 290 290 295 298 297 301 302 305 305 305 305 309 309 312 314 315 317 319 320 319
280 279 280 279 279 280 281 283 282 284 282 280 280 277 280 282 277 280 284 281 285 281 283 288 291 296 296 296 294 296 300 304 304 305 305 308 311 312 313 315 317 319 320 320 318